Time,TemperatureF,DewpointF,PressureIn,WindDirection,WindDirectionDegrees,WindSpeedMPH,WindSpeedGustMPH,Humidity,HourlyPrecipIn,Conditions,Clouds,dailyrainin,SoftwareType,DateUTC
2013-01-15 00:00:00,66.4,66.4,30.07,SSE,165,2.0,2.0,100,0.00,,,0.00,Wunderground v.1.15,2013-01-15 05:00:00,
2013-01-15 00:02:00,66.4,66.4,30.07,SSE,154,2.0,3.0,100,0.00,,,0.00,Wunderground v.1.15,2013-01-15 05:02:00,
2013-01-15 00:08:00,66.4,66.4,30.07,SSW,213,2.0,3.0,100,0.00,,,0.00,Wunderground v.1.15,2013-01-15 05:08:00,
2013-01-15 00:10:00,66.6,66.6,30.07,SSW,198,2.0,4.0,100,0.00,,,0.00,Wunderground v.1.15,2013-01-15 05:10:00,
2013-01-15 00:16:00,66.8,66.8,30.07,SSW,196,3.0,5.0,100,0.00,,,0.00,Wunderground v.1.15,2013-01-15 05:16:00,
2013-01-15 00:22:00,66.8,66.8,30.07,South,188,3.0,4.0,100,0.00,,,0.00,Wunderground v.1.15,2013-01-15 05:22:00,
2013-01-15 00:28:00,67.1,67.1,30.07,SSW,205,3.0,4.0,100,0.00,,,0.00,Wunderground v.1.15,2013-01-15 05:28:00,
2013-01-15 00:34:00,67.1,67.1,30.08,SSW,202,3.0,3.0,100,0.00,,,0.00,Wunderground v.1.15,2013-01-15 05:34:00,
2013-01-15 00:40:00,67.3,67.3,30.08,SW,224,2.0,2.0,100,0.00,,,0.00,Wunderground v.1.15,2013-01-15 05:40:00,
2013-01-15 00:46:00,67.4,67.4,30.07,SW,216,2.0,3.0,100,0.00,,,0.00,Wunderground v.1.15,2013-01-15 05:46:00,
2013-01-15 00:52:00,67.6,67.6,30.07,SW,217,2.0,2.0,100,0.00,,,0.00,Wunderground v.1.15,2013-01-15 05:52:00,
2013-01-15 00:58:00,67.6,67.6,30.07,SW,217,1.0,2.0,100,0.00,,,0.00,Wunderground v.1.15,2013-01-15 05:58:00,
2013-01-15 01:04:00,67.4,67.4,30.07,SW,217,1.0,2.0,100,0.00,,,0.00,Wunderground v.1.15,2013-01-15 06:04:00,
2013-01-15 01:10:00,67.4,67.4,30.07,SSW,213,1.0,1.0,100,0.00,,,0.00,Wunderground v.1.15,2013-01-15 06:10:00,
2013-01-15 01:16:00,67.6,67.6,30.07,SW,217,1.0,2.0,100,0.00,,,0.00,Wunderground v.1.15,2013-01-15 06:16:00,
2013-01-15 01:22:00,67.9,67.9,30.07,SW,217,1.0,2.0,100,0.00,,,0.00,Wunderground v.1.15,2013-01-15 06:22:00,
2013-01-15 01:28:00,67.8,67.8,30.07,SW,217,1.0,2.0,100,0.00,,,0.00,Wunderground v.1.15,2013-01-15 06:28:00,
2013-01-15 01:34:00,67.9,67.9,30.07,SW,226,1.0,1.0,100,0.00,,,0.00,Wunderground v.1.15,2013-01-15 06:34:00,
2013-01-15 01:40:00,68.3,68.3,30.07,WSW,237,2.0,5.0,100,0.00,,,0.00,Wunderground v.1.15,2013-01-15 06:40:00,
2013-01-15 01:46:00,68.4,68.4,30.07,SW,236,2.0,5.0,100,0.00,,,0.00,Wunderground v.1.15,2013-01-15 06:46:00,
2013-01-15 01:52:00,68.4,68.4,30.07,WSW,248,2.0,2.0,100,0.00,,,0.00,Wunderground v.1.15,2013-01-15 06:52:00,
2013-01-15 01:58:00,68.6,68.6,30.07,SW,227,1.0,2.0,100,0.00,,,0.00,Wunderground v.1.15,2013-01-15 06:58:00,
2013-01-15 02:04:00,68.4,68.4,30.07,SW,229,1.0,2.0,100,0.00,,,0.00,Wunderground v.1.15,2013-01-15 07:04:00,
2013-01-15 02:10:00,68.3,68.3,30.07,SW,215,1.0,1.0,100,0.00,,,0.00,Wunderground v.1.15,2013-01-15 07:10:00,
2013-01-15 02:16:00,68.4,68.4,30.07,SW,234,1.0,2.0,100,0.00,,,0.00,Wunderground v.1.15,2013-01-15 07:16:00,
2013-01-15 02:22:00,68.8,68.8,30.07,SW,236,2.0,3.0,100,0.00,,,0.00,Wunderground v.1.15,2013-01-15 07:22:00,
2013-01-15 02:28:00,68.6,68.6,30.07,WSW,247,3.0,5.0,100,0.00,,,0.00,Wunderground v.1.15,2013-01-15 07:28:00,
2013-01-15 02:34:00,68.4,68.4,30.06,WSW,241,3.0,4.0,100,0.00,,,0.00,Wunderground v.1.15,2013-01-15 07:34:00,
2013-01-15 02:40:00,68.4,68.4,30.06,WNW,292,3.0,3.0,100,0.00,,,0.00,Wunderground v.1.15,2013-01-15 07:40:00,
2013-01-15 02:46:00,68.4,68.4,30.06,WSW,237,3.0,6.0,100,0.00,,,0.00,Wunderground v.1.15,2013-01-15 07:46:00,
2013-01-15 02:52:00,68.4,68.4,30.06,WSW,243,3.0,3.0,100,0.00,,,0.00,Wunderground v.1.15,2013-01-15 07:52:00,
2013-01-15 02:58:00,68.4,68.4,30.06,WSW,250,2.0,3.0,100,0.00,,,0.00,Wunderground v.1.15,2013-01-15 07:58:00,
2013-01-15 03:04:00,68.8,68.8,30.06,WSW,240,3.0,3.0,100,0.00,,,0.00,Wunderground v.1.15,2013-01-15 08:04:00,
2013-01-15 03:10:00,68.4,68.4,30.06,WSW,256,3.0,3.0,100,0.00,,,0.00,Wunderground v.1.15,2013-01-15 08:10:00,
2013-01-15 03:16:00,68.4,68.4,30.05,West,268,3.0,6.0,100,0.00,,,0.00,Wunderground v.1.15,2013-01-15 08:16:00,
2013-01-15 03:22:00,68.4,68.4,30.05,WNW,284,3.0,5.0,100,0.00,,,0.00,Wunderground v.1.15,2013-01-15 08:22:00,
2013-01-15 03:28:00,68.6,68.6,30.05,West,267,5.0,5.0,100,0.00,,,0.00,Wunderground v.1.15,2013-01-15 08:28:00,
2013-01-15 03:34:00,68.4,68.4,30.05,WSW,253,5.0,5.0,100,0.00,,,0.00,Wunderground v.1.15,2013-01-15 08:34:00,
2013-01-15 03:40:00,68.3,68.3,30.05,WNW,288,5.0,5.0,100,0.00,,,0.00,Wunderground v.1.15,2013-01-15 08:40:00,
2013-01-15 03:46:00,67.9,67.9,30.05,WNW,287,4.0,5.0,100,0.00,,,0.00,Wunderground v.1.15,2013-01-15 08:46:00,
2013-01-15 03:52:00,67.8,67.8,30.05,West,270,4.0,5.0,100,0.00,,,0.00,Wunderground v.1.15,2013-01-15 08:52:00,
2013-01-15 03:58:00,67.6,67.6,30.05,West,275,4.0,7.0,100,0.00,,,0.00,Wunderground v.1.15,2013-01-15 08:58:00,
2013-01-15 04:04:00,67.8,67.8,30.04,SW,220,4.0,5.0,100,0.00,,,0.00,Wunderground v.1.15,2013-01-15 09:04:00,
2013-01-15 04:10:00,67.3,67.3,30.04,West,275,4.0,4.0,100,0.00,,,0.00,Wunderground v.1.15,2013-01-15 09:10:00,
2013-01-15 04:16:00,67.3,67.3,30.04,SSW,213,4.0,5.0,100,0.00,,,0.00,Wunderground v.1.15,2013-01-15 09:16:00,
2013-01-15 04:22:00,67.3,67.3,30.04,WSW,253,4.0,5.0,100,0.00,,,0.00,Wunderground v.1.15,2013-01-15 09:22:00,
2013-01-15 04:28:00,67.3,67.3,30.04,WSW,256,3.0,6.0,100,0.00,,,0.00,Wunderground v.1.15,2013-01-15 09:28:00,
2013-01-15 04:34:00,67.1,67.1,30.03,WSW,240,4.0,5.0,100,0.00,,,0.00,Wunderground v.1.15,2013-01-15 09:34:00,
2013-01-15 04:40:00,66.9,66.9,30.03,WSW,248,4.0,7.0,100,0.00,,,0.00,Wunderground v.1.15,2013-01-15 09:40:00,
2013-01-15 04:46:00,66.9,66.9,30.03,NW,308,5.0,7.0,100,0.00,,,0.00,Wunderground v.1.15,2013-01-15 09:46:00,
2013-01-15 04:52:00,67.1,67.1,30.03,WSW,243,5.0,6.0,100,0.00,,,0.00,Wunderground v.1.15,2013-01-15 09:52:00,
2013-01-15 04:58:00,67.3,67.3,30.03,West,270,5.0,6.0,100,0.00,,,0.00,Wunderground v.1.15,2013-01-15 09:58:00,
2013-01-15 05:04:00,67.3,67.3,30.03,West,267,6.0,6.0,100,0.00,,,0.00,Wunderground v.1.15,2013-01-15 10:04:00,
2013-01-15 05:10:00,67.3,67.3,30.03,WSW,256,6.0,7.0,100,0.00,,,0.00,Wunderground v.1.15,2013-01-15 10:10:00,
2013-01-15 05:16:00,67.4,67.4,30.02,West,280,6.0,7.0,100,0.00,,,0.00,Wunderground v.1.15,2013-01-15 10:16:00,
2013-01-15 05:22:00,67.4,67.4,30.02,WNW,291,6.0,6.0,100,0.00,,,0.00,Wunderground v.1.15,2013-01-15 10:22:00,
2013-01-15 05:28:00,67.8,67.8,30.02,WNW,287,6.0,7.0,100,0.00,,,0.00,Wunderground v.1.15,2013-01-15 10:28:00,
2013-01-15 05:34:00,67.6,67.6,30.02,West,271,6.0,7.0,100,0.00,,,0.00,Wunderground v.1.15,2013-01-15 10:34:00,
2013-01-15 05:40:00,67.6,67.6,30.02,WSW,256,6.0,6.0,100,0.00,,,0.00,Wunderground v.1.15,2013-01-15 10:40:00,
2013-01-15 05:46:00,67.6,67.6,30.02,SW,227,6.0,6.0,100,0.00,,,0.00,Wunderground v.1.15,2013-01-15 10:46:00,
2013-01-15 05:52:00,67.8,67.8,30.02,WSW,257,5.0,5.0,100,0.00,,,0.00,Wunderground v.1.15,2013-01-15 10:52:00,
2013-01-15 05:58:00,67.8,67.8,30.02,SW,227,5.0,9.0,100,0.00,,,0.00,Wunderground v.1.15,2013-01-15 10:58:00,
2013-01-15 06:04:00,67.8,67.8,30.02,West,268,5.0,6.0,100,0.00,,,0.00,Wunderground v.1.15,2013-01-15 11:04:00,
2013-01-15 06:10:00,67.6,67.6,30.02,West,261,5.0,5.0,100,0.00,,,0.00,Wunderground v.1.15,2013-01-15 11:10:00,
2013-01-15 06:16:00,67.6,67.6,30.02,WSW,257,4.0,5.0,100,0.00,,,0.00,Wunderground v.1.15,2013-01-15 11:16:00,
2013-01-15 06:22:00,67.8,67.8,30.02,WSW,243,4.0,5.0,100,0.00,,,0.00,Wunderground v.1.15,2013-01-15 11:22:00,
2013-01-15 06:28:00,67.6,67.6,30.02,WSW,246,5.0,6.0,100,0.00,,,0.00,Wunderground v.1.15,2013-01-15 11:28:00,
2013-01-15 06:34:00,67.8,67.8,30.02,WSW,246,5.0,6.0,100,0.00,,,0.00,Wunderground v.1.15,2013-01-15 11:34:00,
2013-01-15 06:40:00,67.6,67.6,30.02,WSW,237,4.0,5.0,100,0.00,,,0.00,Wunderground v.1.15,2013-01-15 11:40:00,
2013-01-15 06:46:00,67.8,67.8,30.02,SW,226,4.0,6.0,100,0.00,,,0.00,Wunderground v.1.15,2013-01-15 11:46:00,
2013-01-15 06:52:00,67.4,67.4,30.02,WSW,237,3.0,4.0,100,0.00,,,0.00,Wunderground v.1.15,2013-01-15 11:52:00,
2013-01-15 06:58:00,67.1,67.1,30.02,SW,234,3.0,4.0,100,0.00,,,0.00,Wunderground v.1.15,2013-01-15 11:58:00,
2013-01-15 07:04:00,66.8,66.8,30.03,SSW,213,2.0,3.0,100,0.00,,,0.00,Wunderground v.1.15,2013-01-15 12:04:00,
2013-01-15 07:10:00,66.6,66.6,30.03,SW,215,2.0,5.0,100,0.00,,,0.00,Wunderground v.1.15,2013-01-15 12:10:00,
2013-01-15 07:16:00,66.4,66.4,30.03,South,188,3.0,5.0,100,0.00,,,0.00,Wunderground v.1.15,2013-01-15 12:16:00,
2013-01-15 07:22:00,65.8,65.8,30.03,SSW,193,3.0,3.0,100,0.00,,,0.00,Wunderground v.1.15,2013-01-15 12:22:00,
2013-01-15 07:28:00,65.6,65.6,30.03,SSW,210,3.0,5.0,100,0.00,,,0.00,Wunderground v.1.15,2013-01-15 12:28:00,
2013-01-15 07:34:00,65.3,65.3,30.04,SSW,193,2.0,4.0,100,0.00,,,0.00,Wunderground v.1.15,2013-01-15 12:34:00,
2013-01-15 07:40:00,65.2,65.2,30.04,SSW,210,1.0,1.0,100,0.00,,,0.00,Wunderground v.1.15,2013-01-15 12:40:00,
2013-01-15 07:46:00,65.2,65.2,30.04,SSW,205,1.0,2.0,100,0.00,,,0.00,Wunderground v.1.15,2013-01-15 12:46:00,
2013-01-15 07:52:00,65.2,65.2,30.04,SSW,196,2.0,2.0,100,0.00,,,0.00,Wunderground v.1.15,2013-01-15 12:52:00,
2013-01-15 07:58:00,65.5,65.5,30.04,SW,236,2.0,3.0,100,0.00,,,0.00,Wunderground v.1.15,2013-01-15 12:58:00,
2013-01-15 08:04:00,65.6,65.6,30.05,SW,219,3.0,3.0,100,0.00,,,0.00,Wunderground v.1.15,2013-01-15 13:04:00,
2013-01-15 08:10:00,65.8,65.8,30.05,WSW,243,3.0,5.0,100,0.00,,,0.00,Wunderground v.1.15,2013-01-15 13:10:00,
2013-01-15 08:16:00,66.0,66.0,30.05,WSW,239,3.0,5.0,100,0.00,,,0.00,Wunderground v.1.15,2013-01-15 13:16:00,
2013-01-15 08:22:00,66.3,66.3,30.05,SW,223,4.0,5.0,100,0.00,,,0.00,Wunderground v.1.15,2013-01-15 13:22:00,
2013-01-15 08:28:00,66.6,66.6,30.05,SW,232,4.0,5.0,100,0.00,,,0.00,Wunderground v.1.15,2013-01-15 13:28:00,
2013-01-15 08:34:00,67.3,67.3,30.06,WSW,237,4.0,6.0,100,0.00,,,0.00,Wunderground v.1.15,2013-01-15 13:34:00,
2013-01-15 08:40:00,67.6,67.6,30.06,SW,216,4.0,4.0,100,0.00,,,0.00,Wunderground v.1.15,2013-01-15 13:40:00,
2013-01-15 08:46:00,67.9,67.9,30.07,SSW,210,4.0,7.0,100,0.00,,,0.00,Wunderground v.1.15,2013-01-15 13:46:00,
2013-01-15 08:52:00,68.3,68.3,30.07,SW,236,3.0,4.0,100,0.00,,,0.00,Wunderground v.1.15,2013-01-15 13:52:00,
2013-01-15 08:58:00,68.6,68.6,30.07,SW,220,2.0,5.0,100,0.00,,,0.00,Wunderground v.1.15,2013-01-15 13:58:00,
2013-01-15 09:04:00,68.9,68.6,30.07,SW,236,3.0,4.0,99,0.00,,,0.00,Wunderground v.1.15,2013-01-15 14:04:00,
2013-01-15 09:10:00,69.1,68.8,30.07,WNW,295,3.0,5.0,99,0.00,,,0.00,Wunderground v.1.15,2013-01-15 14:10:00,
2013-01-15 09:16:00,69.4,69.1,30.08,WSW,244,3.0,5.0,99,0.00,,,0.00,Wunderground v.1.15,2013-01-15 14:16:00,
2013-01-15 09:22:00,69.9,69.3,30.08,West,267,3.0,4.0,98,0.00,,,0.00,Wunderground v.1.15,2013-01-15 14:22:00,
2013-01-15 09:28:00,70.3,69.4,30.08,West,267,2.0,6.0,97,0.00,,,0.00,Wunderground v.1.15,2013-01-15 14:28:00,
2013-01-15 09:34:00,70.4,69.5,30.08,SW,224,4.0,4.0,97,0.00,,,0.00,Wunderground v.1.15,2013-01-15 14:34:00,
2013-01-15 09:40:00,70.9,70.0,30.08,WSW,241,2.0,2.0,97,0.00,,,0.00,Wunderground v.1.15,2013-01-15 14:40:00,
2013-01-15 09:46:00,71.5,70.6,30.08,SW,219,1.0,2.0,97,0.00,,,0.00,Wunderground v.1.15,2013-01-15 14:46:00,
2013-01-15 09:52:00,71.8,70.6,30.08,WSW,251,2.0,6.0,96,0.00,,,0.00,Wunderground v.1.15,2013-01-15 14:52:00,
2013-01-15 09:58:00,72.1,70.6,30.08,SSW,205,4.0,6.0,95,0.00,,,0.00,Wunderground v.1.15,2013-01-15 14:58:00,
2013-01-15 10:04:00,72.5,70.7,30.08,WNW,284,4.0,7.0,94,0.00,,,0.00,Wunderground v.1.15,2013-01-15 15:04:00,
2013-01-15 10:10:00,72.5,70.7,30.08,WSW,258,5.0,5.0,94,0.00,,,0.00,Wunderground v.1.15,2013-01-15 15:10:00,
2013-01-15 10:16:00,73.0,70.9,30.07,SW,224,4.0,7.0,93,0.00,,,0.00,Wunderground v.1.15,2013-01-15 15:16:00,
2013-01-15 10:22:00,73.2,70.7,30.07,SW,224,6.0,7.0,92,0.00,,,0.00,Wunderground v.1.15,2013-01-15 15:22:00,
2013-01-15 10:28:00,73.7,70.9,30.07,SSW,209,8.0,11.0,91,0.00,,,0.00,Wunderground v.1.15,2013-01-15 15:28:00,
2013-01-15 10:34:00,73.7,70.9,30.08,SSW,212,7.0,8.0,91,0.00,,,0.00,Wunderground v.1.15,2013-01-15 15:34:00,
2013-01-15 10:40:00,73.7,70.9,30.08,SW,216,6.0,6.0,91,0.00,,,0.00,Wunderground v.1.15,2013-01-15 15:40:00,
2013-01-15 10:46:00,74.2,71.1,30.07,WSW,247,6.0,10.0,90,0.00,,,0.00,Wunderground v.1.15,2013-01-15 15:46:00,
2013-01-15 10:52:00,74.6,71.1,30.07,SW,226,7.0,9.0,89,0.00,,,0.00,Wunderground v.1.15,2013-01-15 15:52:00,
2013-01-15 10:58:00,75.1,71.6,30.07,WSW,247,6.0,9.0,89,0.00,,,0.00,Wunderground v.1.15,2013-01-15 15:58:00,
2013-01-15 11:04:00,75.1,71.6,30.06,South,191,7.0,8.0,89,0.00,,,0.00,Wunderground v.1.15,2013-01-15 16:04:00,
2013-01-15 11:10:00,74.9,71.4,30.06,WSW,247,8.0,8.0,89,0.00,,,0.00,Wunderground v.1.15,2013-01-15 16:10:00,
2013-01-15 11:16:00,74.6,71.1,30.06,West,271,8.0,11.0,89,0.00,,,0.00,Wunderground v.1.15,2013-01-15 16:16:00,
2013-01-15 11:22:00,74.2,71.1,30.06,WSW,240,9.0,10.0,90,0.00,,,0.00,Wunderground v.1.15,2013-01-15 16:22:00,
2013-01-15 11:28:00,74.6,71.5,30.06,NW,315,8.0,13.0,90,0.00,,,0.00,Wunderground v.1.15,2013-01-15 16:28:00,
2013-01-15 11:34:00,74.2,71.1,30.05,WSW,244,9.0,13.0,90,0.00,,,0.00,Wunderground v.1.15,2013-01-15 16:34:00,
2013-01-15 11:40:00,74.2,71.4,30.05,SW,229,10.0,10.0,91,0.00,,,0.00,Wunderground v.1.15,2013-01-15 16:40:00,
2013-01-15 11:46:00,74.6,71.5,30.04,WSW,244,8.0,10.0,90,0.00,,,0.00,Wunderground v.1.15,2013-01-15 16:46:00,
2013-01-15 11:52:00,74.7,71.2,30.04,SW,224,6.0,7.0,89,0.00,,,0.00,Wunderground v.1.15,2013-01-15 16:52:00,
2013-01-15 11:58:00,74.9,71.4,30.04,SW,234,5.0,10.0,89,0.00,,,0.00,Wunderground v.1.15,2013-01-15 16:58:00,
2013-01-15 12:04:00,74.9,71.8,30.03,SSE,155,6.0,6.0,90,0.00,,,0.00,Wunderground v.1.15,2013-01-15 17:04:00,
2013-01-15 12:10:00,74.7,71.2,30.03,SSW,198,5.0,6.0,89,0.00,,,0.00,Wunderground v.1.15,2013-01-15 17:10:00,
2013-01-15 12:16:00,74.9,71.4,30.03,WSW,237,4.0,7.0,89,0.00,,,0.00,Wunderground v.1.15,2013-01-15 17:16:00,
2013-01-15 12:22:00,75.1,71.6,30.03,SSW,213,5.0,5.0,89,0.00,,,0.00,Wunderground v.1.15,2013-01-15 17:22:00,
2013-01-15 12:28:00,74.6,71.5,30.03,WSW,244,5.0,6.0,90,0.00,,,0.00,Wunderground v.1.15,2013-01-15 17:28:00,
2013-01-15 12:34:00,74.6,71.5,30.02,SSW,203,4.0,11.0,90,0.00,,,0.00,Wunderground v.1.15,2013-01-15 17:34:00,
2013-01-15 12:40:00,73.5,71.4,30.02,SSE,167,5.0,5.0,93,0.00,,,0.00,Wunderground v.1.15,2013-01-15 17:40:00,
2013-01-15 12:46:00,73.0,71.2,30.02,SSE,164,6.0,8.0,94,0.00,,,0.00,Wunderground v.1.15,2013-01-15 17:46:00,
2013-01-15 12:52:00,73.0,71.5,30.02,SW,226,5.0,5.0,95,0.00,,,0.00,Wunderground v.1.15,2013-01-15 17:52:00,
2013-01-15 12:58:00,73.5,71.4,30.02,SSW,208,5.0,8.0,93,0.00,,,0.00,Wunderground v.1.15,2013-01-15 17:58:00,
2013-01-15 13:04:00,74.4,71.9,30.01,SSW,210,5.0,5.0,92,0.00,,,0.00,Wunderground v.1.15,2013-01-15 18:04:00,
2013-01-15 13:10:00,74.2,71.4,30.01,WSW,254,4.0,4.0,91,0.00,,,0.00,Wunderground v.1.15,2013-01-15 18:10:00,
2013-01-15 13:16:00,74.4,71.6,30.01,SSW,198,4.0,5.0,91,0.00,,,0.00,Wunderground v.1.15,2013-01-15 18:16:00,
2013-01-15 13:22:00,74.6,71.8,30.01,South,178,4.0,5.0,91,0.00,,,0.00,Wunderground v.1.15,2013-01-15 18:22:00,
2013-01-15 13:28:00,74.7,71.9,30.01,South,186,5.0,6.0,91,0.00,,,0.00,Wunderground v.1.15,2013-01-15 18:28:00,
2013-01-15 13:34:00,74.9,72.1,30.01,WSW,244,5.0,5.0,91,0.00,,,0.00,Wunderground v.1.15,2013-01-15 18:34:00,
2013-01-15 13:40:00,75.1,72.3,30.01,West,261,3.0,5.0,91,0.00,,,0.00,Wunderground v.1.15,2013-01-15 18:40:00,
2013-01-15 13:46:00,76.0,72.2,30.00,SSW,199,3.0,6.0,88,0.00,,,0.00,Wunderground v.1.15,2013-01-15 18:46:00,
2013-01-15 13:52:00,75.4,71.9,30.00,South,176,4.0,8.0,89,0.00,,,0.00,Wunderground v.1.15,2013-01-15 18:52:00,
2013-01-15 13:58:00,75.1,72.0,30.00,SSW,192,6.0,12.0,90,0.00,,,0.00,Wunderground v.1.15,2013-01-15 18:58:00,
2013-01-15 14:04:00,75.3,72.2,30.00,SW,224,6.0,7.0,90,0.00,,,0.00,Wunderground v.1.15,2013-01-15 19:04:00,
2013-01-15 14:10:00,75.4,72.3,30.00,SSW,212,4.0,9.0,90,0.00,,,0.00,Wunderground v.1.15,2013-01-15 19:10:00,
2013-01-15 14:16:00,75.3,72.2,30.00,SW,234,4.0,9.0,90,0.00,,,0.00,Wunderground v.1.15,2013-01-15 19:16:00,
2013-01-15 14:22:00,76.1,72.6,30.00,South,182,4.0,4.0,89,0.00,,,0.00,Wunderground v.1.15,2013-01-15 19:22:00,
2013-01-15 14:28:00,76.1,71.9,30.00,SW,226,3.0,8.0,87,0.00,,,0.00,Wunderground v.1.15,2013-01-15 19:28:00,
2013-01-15 14:34:00,75.6,72.1,29.99,SSW,198,5.0,10.0,89,0.00,,,0.00,Wunderground v.1.15,2013-01-15 19:34:00,
2013-01-15 14:40:00,75.3,72.2,29.99,SSW,199,4.0,4.0,90,0.00,,,0.00,Wunderground v.1.15,2013-01-15 19:40:00,
2013-01-15 14:46:00,75.1,71.6,29.99,WSW,244,4.0,4.0,89,0.00,,,0.00,Wunderground v.1.15,2013-01-15 19:46:00,
2013-01-15 14:52:00,74.9,71.8,29.99,SW,224,4.0,4.0,90,0.00,,,0.00,Wunderground v.1.15,2013-01-15 19:52:00,
2013-01-15 14:58:00,74.6,71.8,29.99,WSW,244,5.0,5.0,91,0.00,,,0.00,Wunderground v.1.15,2013-01-15 19:58:00,
2013-01-15 15:04:00,74.6,71.8,29.99,SW,217,4.0,5.0,91,0.00,,,0.00,Wunderground v.1.15,2013-01-15 20:04:00,
2013-01-15 15:10:00,74.9,72.1,29.99,South,189,5.0,6.0,91,0.00,,,0.00,Wunderground v.1.15,2013-01-15 20:10:00,
2013-01-15 15:16:00,74.6,71.8,30.00,SW,230,6.0,10.0,91,0.00,,,0.00,Wunderground v.1.15,2013-01-15 20:16:00,
2013-01-15 15:22:00,74.6,71.8,30.00,SW,220,5.0,8.0,91,0.00,,,0.00,Wunderground v.1.15,2013-01-15 20:22:00,
2013-01-15 15:28:00,74.6,71.8,30.00,SW,232,6.0,10.0,91,0.00,,,0.00,Wunderground v.1.15,2013-01-15 20:28:00,
2013-01-15 15:34:00,74.2,71.4,30.00,SSW,212,6.0,11.0,91,0.00,,,0.00,Wunderground v.1.15,2013-01-15 20:34:00,
2013-01-15 15:40:00,73.7,71.2,30.00,SW,219,5.0,5.0,92,0.00,,,0.00,Wunderground v.1.15,2013-01-15 20:40:00,
2013-01-15 15:46:00,73.5,71.4,30.00,SSW,192,4.0,8.0,93,0.00,,,0.00,Wunderground v.1.15,2013-01-15 20:46:00,
2013-01-15 15:52:00,73.2,71.4,30.00,SSW,200,5.0,7.0,94,0.00,,,0.00,Wunderground v.1.15,2013-01-15 20:52:00,
2013-01-15 15:58:00,73.3,71.5,30.00,South,176,4.0,7.0,94,0.00,,,0.00,Wunderground v.1.15,2013-01-15 20:58:00,
2013-01-15 16:04:00,73.3,71.5,30.00,South,181,4.0,8.0,94,0.00,,,0.00,Wunderground v.1.15,2013-01-15 21:04:00,
2013-01-15 16:10:00,73.2,71.4,30.00,SW,219,4.0,4.0,94,0.00,,,0.00,Wunderground v.1.15,2013-01-15 21:10:00,
2013-01-15 16:16:00,72.7,70.9,30.00,SW,230,5.0,8.0,94,0.00,,,0.00,Wunderground v.1.15,2013-01-15 21:16:00,
2013-01-15 16:22:00,72.3,70.8,30.00,SW,223,5.0,7.0,95,0.00,,,0.00,Wunderground v.1.15,2013-01-15 21:22:00,
2013-01-15 16:28:00,72.0,70.8,30.00,WSW,258,5.0,7.0,96,0.00,,,0.00,Wunderground v.1.15,2013-01-15 21:28:00,
2013-01-15 16:34:00,71.8,70.9,30.00,SSW,198,6.0,6.0,97,0.00,,,0.00,Wunderground v.1.15,2013-01-15 21:34:00,
2013-01-15 16:40:00,72.0,71.1,30.00,SSW,202,5.0,5.0,97,0.00,,,0.00,Wunderground v.1.15,2013-01-15 21:40:00,
2013-01-15 16:46:00,71.3,70.7,30.00,SW,219,4.0,5.0,98,0.00,,,0.00,Wunderground v.1.15,2013-01-15 21:46:00,
2013-01-15 16:52:00,71.1,70.5,30.00,SW,227,4.0,5.0,98,0.00,,,0.00,Wunderground v.1.15,2013-01-15 21:52:00,
2013-01-15 16:58:00,70.9,70.6,30.00,SSW,206,4.0,5.0,99,0.00,,,0.00,Wunderground v.1.15,2013-01-15 21:58:00,
2013-01-15 17:04:00,70.8,70.8,30.00,South,182,3.0,4.0,100,0.00,,,0.00,Wunderground v.1.15,2013-01-15 22:04:00,
2013-01-15 17:10:00,70.4,70.4,30.00,WSW,240,3.0,3.0,100,0.00,,,0.00,Wunderground v.1.15,2013-01-15 22:10:00,
2013-01-15 17:16:00,70.3,70.3,30.00,SW,224,3.0,4.0,100,0.00,,,0.00,Wunderground v.1.15,2013-01-15 22:16:00,
2013-01-15 17:22:00,70.3,70.3,30.00,SSW,202,3.0,4.0,100,0.00,,,0.00,Wunderground v.1.15,2013-01-15 22:22:00,
2013-01-15 17:28:00,70.1,70.1,30.00,WSW,239,2.0,4.0,100,0.00,,,0.00,Wunderground v.1.15,2013-01-15 22:28:00,
2013-01-15 17:34:00,69.8,69.8,30.00,SW,230,2.0,3.0,100,0.00,,,0.00,Wunderground v.1.15,2013-01-15 22:34:00,
2013-01-15 17:40:00,69.6,69.6,30.00,SW,233,2.0,2.0,100,0.00,,,0.00,Wunderground v.1.15,2013-01-15 22:40:00,
2013-01-15 17:46:00,69.4,69.4,30.01,SW,226,2.0,5.0,100,0.00,,,0.00,Wunderground v.1.15,2013-01-15 22:46:00,
2013-01-15 17:52:00,69.3,69.3,30.01,SW,215,3.0,6.0,100,0.00,,,0.00,Wunderground v.1.15,2013-01-15 22:52:00,
2013-01-15 17:58:00,69.1,69.1,30.01,SW,229,4.0,6.0,100,0.00,,,0.00,Wunderground v.1.15,2013-01-15 22:58:00,
2013-01-15 18:04:00,69.1,69.1,30.01,SW,215,4.0,5.0,100,0.00,,,0.00,Wunderground v.1.15,2013-01-15 23:04:00,
2013-01-15 18:10:00,68.9,68.9,30.01,SSW,206,3.0,3.0,100,0.00,,,0.00,Wunderground v.1.15,2013-01-15 23:10:00,
2013-01-15 18:16:00,68.6,68.6,30.01,SSE,167,3.0,5.0,100,0.00,,,0.00,Wunderground v.1.15,2013-01-15 23:16:00,
2013-01-15 18:22:00,68.3,68.3,30.01,South,172,3.0,3.0,100,0.00,,,0.00,Wunderground v.1.15,2013-01-15 23:22:00,
2013-01-15 18:28:00,67.9,67.9,30.01,SSE,154,3.0,3.0,100,0.00,,,0.00,Wunderground v.1.15,2013-01-15 23:28:00,
2013-01-15 18:34:00,67.6,67.6,30.02,SSE,155,3.0,3.0,100,0.00,,,0.00,Wunderground v.1.15,2013-01-15 23:34:00,
2013-01-15 18:40:00,67.3,67.3,30.02,SSE,151,3.0,3.0,100,0.00,,,0.00,Wunderground v.1.15,2013-01-15 23:40:00,
2013-01-15 18:46:00,66.9,66.9,30.01,SSE,150,3.0,4.0,100,0.00,,,0.00,Wunderground v.1.15,2013-01-15 23:46:00,
2013-01-15 18:52:00,66.8,66.8,30.01,SSE,151,2.0,2.0,100,0.00,,,0.00,Wunderground v.1.15,2013-01-15 23:52:00,
2013-01-15 18:58:00,66.6,66.6,30.01,SSE,152,2.0,2.0,100,0.00,,,0.00,Wunderground v.1.15,2013-01-15 23:58:00,
2013-01-15 19:04:00,66.8,66.8,30.01,SSE,165,2.0,2.0,100,0.00,,,0.00,Wunderground v.1.15,2013-01-16 00:04:00,
2013-01-15 19:10:00,66.8,66.8,30.01,SSE,167,2.0,2.0,100,0.00,,,0.00,Wunderground v.1.15,2013-01-16 00:10:00,
2013-01-15 19:16:00,66.8,66.8,30.01,SSE,162,2.0,3.0,100,0.00,,,0.00,Wunderground v.1.15,2013-01-16 00:16:00,
2013-01-15 19:22:00,66.6,66.6,30.01,SSE,162,1.0,2.0,100,0.00,,,0.00,Wunderground v.1.15,2013-01-16 00:22:00,
2013-01-15 19:28:00,66.4,66.4,30.01,SSE,164,1.0,2.0,100,0.00,,,0.00,Wunderground v.1.15,2013-01-16 00:28:00,
2013-01-15 19:34:00,66.1,66.1,30.01,SSE,161,1.0,2.0,100,0.00,,,0.00,Wunderground v.1.15,2013-01-16 00:34:00,
2013-01-15 19:40:00,66.0,66.0,30.01,SSE,161,2.0,2.0,100,0.00,,,0.00,Wunderground v.1.15,2013-01-16 00:40:00,
2013-01-15 19:46:00,65.6,65.6,30.02,SSE,162,2.0,3.0,100,0.00,,,0.00,Wunderground v.1.15,2013-01-16 00:46:00,
2013-01-15 19:52:00,65.6,65.6,30.02,SE,137,3.0,3.0,100,0.00,,,0.00,Wunderground v.1.15,2013-01-16 00:52:00,
2013-01-15 19:58:00,65.5,65.5,30.02,SSE,152,3.0,3.0,100,0.00,,,0.00,Wunderground v.1.15,2013-01-16 00:58:00,
2013-01-15 20:04:00,65.6,65.6,30.02,SE,143,2.0,3.0,100,0.00,,,0.00,Wunderground v.1.15,2013-01-16 01:04:00,
2013-01-15 20:10:00,66.1,66.1,30.02,SW,233,2.0,2.0,100,0.00,,,0.00,Wunderground v.1.15,2013-01-16 01:10:00,
2013-01-15 20:16:00,66.4,66.4,30.02,SSW,202,3.0,3.0,100,0.00,,,0.00,Wunderground v.1.15,2013-01-16 01:16:00,
2013-01-15 20:22:00,66.8,66.8,30.02,South,186,3.0,3.0,100,0.00,,,0.00,Wunderground v.1.15,2013-01-16 01:22:00,
2013-01-15 20:28:00,67.1,67.1,30.02,SSW,195,3.0,5.0,100,0.00,,,0.00,Wunderground v.1.15,2013-01-16 01:28:00,
2013-01-15 20:34:00,66.9,66.9,30.01,South,175,3.0,3.0,100,0.00,,,0.00,Wunderground v.1.15,2013-01-16 01:34:00,
2013-01-15 20:40:00,66.8,66.8,30.01,South,172,3.0,3.0,100,0.00,,,0.00,Wunderground v.1.15,2013-01-16 01:40:00,
2013-01-15 20:46:00,66.6,66.6,30.00,South,174,2.0,3.0,100,0.00,,,0.00,Wunderground v.1.15,2013-01-16 01:46:00,
2013-01-15 20:52:00,66.4,66.4,30.00,South,169,2.0,2.0,100,0.00,,,0.00,Wunderground v.1.15,2013-01-16 01:52:00,
2013-01-15 20:58:00,66.4,66.4,30.00,SSE,154,2.0,6.0,100,0.00,,,0.00,Wunderground v.1.15,2013-01-16 01:58:00,
2013-01-15 21:04:00,66.3,66.3,30.00,SSE,154,2.0,3.0,100,0.00,,,0.00,Wunderground v.1.15,2013-01-16 02:04:00,
2013-01-15 21:10:00,66.1,66.1,30.00,SSE,154,1.0,1.0,100,0.00,,,0.00,Wunderground v.1.15,2013-01-16 02:10:00,
2013-01-15 21:16:00,66.3,66.3,30.00,SSE,154,1.0,2.0,100,0.00,,,0.00,Wunderground v.1.15,2013-01-16 02:16:00,
2013-01-15 21:22:00,66.6,66.6,30.00,SSE,155,2.0,3.0,100,0.00,,,0.00,Wunderground v.1.15,2013-01-16 02:22:00,
2013-01-15 21:28:00,66.8,66.8,30.00,SSE,158,2.0,3.0,100,0.00,,,0.00,Wunderground v.1.15,2013-01-16 02:28:00,
2013-01-15 21:34:00,66.8,66.8,29.99,SSE,151,2.0,3.0,100,0.00,,,0.00,Wunderground v.1.15,2013-01-16 02:34:00,
2013-01-15 21:40:00,66.6,66.6,29.99,SSE,151,2.0,2.0,100,0.00,,,0.00,Wunderground v.1.15,2013-01-16 02:40:00,
2013-01-15 21:46:00,66.3,66.3,29.99,SSE,151,2.0,2.0,100,0.00,,,0.00,Wunderground v.1.15,2013-01-16 02:46:00,
2013-01-15 21:52:00,66.3,66.3,29.99,SSE,151,1.0,1.0,100,0.00,,,0.00,Wunderground v.1.15,2013-01-16 02:52:00,
2013-01-15 21:58:00,66.4,66.4,29.99,SSE,151,1.0,2.0,100,0.00,,,0.00,Wunderground v.1.15,2013-01-16 02:58:00,
2013-01-15 22:04:00,66.6,66.6,29.99,SSE,151,2.0,5.0,100,0.00,,,0.00,Wunderground v.1.15,2013-01-16 03:04:00,
2013-01-15 22:10:00,66.6,66.6,29.99,SSE,168,3.0,3.0,100,0.00,,,0.00,Wunderground v.1.15,2013-01-16 03:10:00,
2013-01-15 22:16:00,66.8,66.8,29.98,South,178,2.0,3.0,100,0.00,,,0.00,Wunderground v.1.15,2013-01-16 03:16:00,
2013-01-15 22:22:00,66.9,66.9,29.98,SSE,154,2.0,2.0,100,0.00,,,0.00,Wunderground v.1.15,2013-01-16 03:22:00,
2013-01-15 22:28:00,66.8,66.8,29.98,SSE,160,2.0,2.0,100,0.00,,,0.00,Wunderground v.1.15,2013-01-16 03:28:00,
2013-01-15 22:34:00,66.8,66.8,29.98,South,169,2.0,5.0,100,0.00,,,0.00,Wunderground v.1.15,2013-01-16 03:34:00,
2013-01-15 22:40:00,67.1,67.1,29.98,SSE,168,2.0,2.0,100,0.00,,,0.00,Wunderground v.1.15,2013-01-16 03:40:00,
2013-01-15 22:46:00,66.8,66.8,29.97,SSE,162,2.0,3.0,100,0.00,,,0.00,Wunderground v.1.15,2013-01-16 03:46:00,
2013-01-15 22:52:00,66.8,66.8,29.97,SE,144,2.0,2.0,100,0.00,,,0.00,Wunderground v.1.15,2013-01-16 03:52:00,
2013-01-15 22:58:00,67.4,67.4,29.97,SE,144,2.0,2.0,100,0.00,,,0.00,Wunderground v.1.15,2013-01-16 03:58:00,
2013-01-15 23:04:00,67.8,67.8,29.97,South,178,1.0,2.0,100,0.00,,,0.00,Wunderground v.1.15,2013-01-16 04:04:00,
2013-01-15 23:10:00,68.1,68.1,29.97,South,176,2.0,2.0,100,0.00,,,0.00,Wunderground v.1.15,2013-01-16 04:10:00,
2013-01-15 23:16:00,68.3,68.3,29.96,South,178,2.0,3.0,100,0.00,,,0.00,Wunderground v.1.15,2013-01-16 04:16:00,
2013-01-15 23:22:00,68.3,68.3,29.96,SE,145,2.0,3.0,100,0.00,,,0.00,Wunderground v.1.15,2013-01-16 04:22:00,
2013-01-15 23:28:00,68.3,68.3,29.96,SSE,167,3.0,8.0,100,0.00,,,0.00,Wunderground v.1.15,2013-01-16 04:28:00,
2013-01-15 23:34:00,68.3,68.3,29.96,South,175,3.0,6.0,100,0.00,,,0.00,Wunderground v.1.15,2013-01-16 04:34:00,
2013-01-15 23:40:00,68.4,68.4,29.96,South,174,3.0,3.0,100,0.00,,,0.00,Wunderground v.1.15,2013-01-16 04:40:00,
2013-01-15 23:46:00,68.4,68.4,29.95,South,174,4.0,6.0,100,0.00,,,0.00,Wunderground v.1.15,2013-01-16 04:46:00,
2013-01-15 23:52:00,68.4,68.4,29.95,SE,134,4.0,6.0,100,0.00,,,0.00,Wunderground v.1.15,2013-01-16 04:52:00,
2013-01-15 23:58:00,68.6,68.6,29.95,South,179,3.0,8.0,100,0.00,,,0.00,Wunderground v.1.15,2013-01-16 04:58:00,